DW3212 Weather Reports


time (UTC)temp
C
wind
direction
speed
KPH
gust
KPH
rain 1hr
cm
rain 24hr
cm
rain mn
cm
humidity
%
barometer
mb
20260506230131 12 0.0 0.0 0.08 1.55 1.52 93 1004.7
20260506224605 12 0.0 0.0 0.08 1.55 1.52 94 1004.5
20260506223100 12 0.0 0.0 0.05 1.52 1.47 94 1004.4
20260506221624 13 0.0 0.0 0.05 1.47 1.45 94 1004.3
20260506220129 13 0.0 0.0 0.08 1.47 1.45 93 1004.3
20260506214555 13 0.0 0.0 0.10 1.47 1.45 93 1004.4
20260506213109 13 0.0 0.0 0.18 1.47 1.45 93 1004.3
20260506211600 13 0.0 0.0 0.15 1.42 1.40 94 1004.3
20260506210105 13 0.0 0.0 0.15 1.40 1.37 94 1004.5
20260506204606 13 0.0 0.0 0.15 1.37 1.32 93 1004.5
20260506203057 13 0.0 0.0 0.10 1.30 1.27 93 1004.5
20260506201602 13 0.0 0.0 0.10 1.27 1.24 93 1004.5
20260506200058 13 0.0 0.0 0.10 1.24 1.22 94 1004.7
20260506194600 13 0.0 0.0 0.18 1.22 1.19 94 1004.6
20260506193059 12 0.0 0.0 0.20 1.19 1.17 95 1004.9
20260506191604 12 0.0 0.0 0.23 1.17 1.14 95 1004.9
20260506190057 12 0.0 0.0 0.25 1.14 1.12 96 1005.1
20260506184634 12 0.0 0.0 0.30 1.04 1.02 96 1005.3
20260506183102 12 0.0 0.0 0.38 0.99 0.97 96 1005.2
20260506181559 12 0.0 0.0 0.41 0.94 0.91 96 1005.5
20260506180057 12 0.0 0.0 0.43 0.89 0.86 95 1005.9
20260506174556 12 0.0 0.0 0.36 0.74 0.71 95 1006.0
20260506173059 12 0.0 0.0 0.33 0.61 0.58 94 1006.4
20260506171607 12 0.0 0.0 0.33 0.53 0.51 94 1006.6
20260506170059 12 0.0 0.0 0.30 0.46 0.43 94 1006.8
20260506164557 12 0.0 0.0 0.25 0.38 0.36 94 1007.1
20260506163106 12 0.0 0.0 0.18 0.28 0.25 94 1007.0
20260506161557 13 0.0 0.0 0.13 0.20 0.18 94 1007.1
20260506160109 13 0.0 0.0 0.10 0.15 0.13 93 1007.1
20260506154559 13 0.0 0.0 0.10 0.13 0.10 92 1007.3
20260506153055 13 0.0 0.0 0.08 0.10 0.08 91 1007.5
20260506151559 13 0.0 0.0 0.05 0.08 0.05 89 1007.8
20260506144603 14 0.0 0.0 0.00 0.03 0.00 84 1008.2
20260506143058 15 0.0 0.0 0.00 0.03 0.00 81 1008.1
20260506141555 14 0.0 0.0 0.00 0.03 0.00 83 1008.1
20260506140104 14 0.0 0.0 0.00 0.03 0.00 83 1007.9
20260506134601 14 0.0 0.0 0.00 0.03 0.00 83 1007.7
20260506133057 13 0.0 0.0 0.00 0.03 0.00 85 1007.7
20260506131607 13 0.0 0.0 0.00 0.03 0.00 85 1007.8
20260506130056 13 0.0 0.0 0.00 0.03 0.00 87 1008.0
20260506124555 12 0.0 0.0 0.00 0.03 0.00 89 1008.3
20260506123057 11 0.0 0.0 0.00 0.03 0.00 89 1008.4
20260506121603 11 0.0 0.0 0.00 0.03 0.00 92 1008.3
20260506120104 10 0.0 0.0 0.00 0.03 0.00 91 1008.3
20260506114558 10 0.0 0.0 0.00 0.05 0.00 92 1007.6
20260506113057 10 0.0 0.0 0.00 0.05 0.00 92 1008.1
20260506111605 10 0.0 0.0 0.00 0.05 0.00 93 1008.4
20260506104608 10 0.0 0.0 0.00 0.05 0.00 93 1008.2
20260506103059 10 0.0 0.0 0.00 0.05 0.00 93 1008.1
20260506101555 10 0.0 0.0 0.00 0.05 0.00 93 1008.1
20260506100114 10 0.0 0.0 0.00 0.05 0.00 93 1007.9
20260506094602 10 0.0 0.0 0.00 0.05 0.00 94 1008.0
20260506093101 10 0.0 0.0 0.00 0.05 0.00 94 1008.1
20260506091558 10 0.0 0.0 0.00 0.05 0.00 94 1008.2
20260506090055 11 0.0 0.0 0.00 0.05 0.00 93 1008.2
20260506084603 11 0.0 0.0 0.00 0.05 0.00 93 1008.1
20260506083056 11 0.0 0.0 0.00 0.05 0.00 93 1008.2
20260506081556 11 0.0 0.0 0.00 0.05 0.00 93 1008.5
20260506073056 11 0.0 0.0 0.00 0.05 0.00 89 1008.8
20260506071559 12 0.0 0.0 0.00 0.05 0.00 87 1008.8
20260506061556 13 0.0 0.0 0.00 0.05 0.00 83 1008.7
20260506044558 14 0.0 0.0 0.00 0.05 0.00 79 1009.2
20260506043056 14 0.0 0.0 0.00 0.05 0.00 77 1009.2
20260506041605 15 0.0 0.0 0.00 0.05 0.00 77 1009.0
20260506040110 15 0.0 0.0 0.00 0.05 0.00 75 1009.2
20260506034556 15 0.0 0.0 0.00 0.05 0.05 75 1009.1
20260506033058 15 0.0 0.0 0.00 0.05 0.05 76 1009.1
20260506031603 14 0.0 0.0 0.03 0.05 0.05 78 1009.2
20260506030116 13 0.0 0.0 0.03 0.05 0.05 80 1009.4
20260506024622 13 0.0 0.0 0.03 0.05 0.05 81 1009.6
20260506023054 13 0.0 0.0 0.03 0.05 0.05 81 1009.2
20260506021600 13 0.0 0.0 0.00 0.03 0.03 81 1009.3
20260506020053 14 0.0 0.0 0.00 0.03 0.03 79 1009.5
20260506014612 15 0.0 0.0 0.00 0.03 0.03 75 1009.4
20260506013055 15 0.0 0.0 0.00 0.03 0.03 70 1009.3
20260506011553 15 0.0 0.0 0.00 0.03 0.03 70 1009.0
20260506010104 16 0.0 0.0 0.00 0.03 0.03 67 1008.9
20260506004554 15 0.0 0.0 0.00 0.03 0.03 70 1008.5
20260506003057 14 0.0 0.0 0.00 0.03 0.03 82 1008.2
20260506001601 15 0.0 0.0 0.00 0.03 0.03 72 1008.2
20260506000107 15 0.0 0.0 0.00 0.03 0.03 71 1008.6
20260505234600 15 0.0 0.0 0.00 0.03 0.03 74 1008.2
20260505233109 15 0.0 0.0 0.00 0.03 0.03 73 1008.1
20260505231558 15 0.0 0.0 0.00 0.03 0.03 73 1008.0